Flag for Germany Weather past 2 weeks in Frankfurt an der Oder, Brandenburg, Germany

60 °F

Passing clouds.

Feels Like: 60 °F
Forecast: 47 / 68 °F
Wind: 2 mph from West

Location: Lindenberg

Current Time: Oct 4, 2015 at 7:25:13 PM

Latest Report: Oct 4, 2015 at 7:00 PM

Visibility: 19 mi

Pressure: 29.98 "Hg

Humidity: 64%

Dew point: 48 °F

Location of Frankfurt an der OderLocation

Historic Weather in Frankfurt an der Oder — Graph


Frankfurt an der Oder temperature yesterday

Maximum temperature yesterday: 67 °F (at 4:00 PM)
Minimum temperature yesterday: 49 °F (at 9:00 AM)
Average temperature yesterday: 59 °F

Past Weeks' High & Low Weather Summary

High69 °F (Oct 4, 3:00 PM)97% (Sep 21, 7:00 AM)30.68 "Hg (Sep 21, 7:00 AM)
Low40 °F (Oct 2, 7:00 AM)33% (Oct 2, 4:00 PM)29.64 "Hg (Sep 22, 10:00 PM)
Average55 °F73%30.20 "Hg
* Reported Sep 19 6:00 PM — Oct 4 6:00 PM, Frankfurt an der Oder, Weather by CustomWeather, © 2015

Note: Actual official high and low records may vary slightly from our data, if they occured in-between our weather recording intervals... More about our weather records


Frankfurt an der Oder weather history for previous 24 hours

Time TempWeatherWind HumidityBarometerVisibility
6:00 PM
Sun, Oct 4
65 °FPartly sunny.3 mph53%29.96 "Hg19 mi
5:00 PM67 °FPartly sunny.3 mph49%29.96 "Hg16 mi
4:00 PM69 °FPartly sunny.6 mph46%29.96 "Hg12 mi
3:00 PM69 °FPartly sunny.6 mph51%29.96 "Hg12 mi
2:00 PM67 °FPartly sunny.5 mph53%29.97 "Hg12 mi
1:00 PM67 °FPartly sunny.5 mph55%29.96 "Hg12 mi
12:00 PM64 °FPartly sunny.5 mph61%29.96 "Hg12 mi
10:00 AM58 °FPartly sunny.5 mph76%29.96 "Hg11 mi
9:00 AM55 °FScattered clouds.2 mph81%29.95 "Hg11 mi
8:00 AM54 °FPartly sunny.2 mph83%29.94 "Hg9 mi
7:00 AM54 °FOvercast.2 mph83%29.93 "Hg9 mi
6:00 AM56 °FOvercast.3 mph79%29.93 "Hg12 mi
5:00 AM56 °FOvercast.2 mph79%29.93 "Hg12 mi
4:00 AM56 °FOvercast.2 mph78%29.93 "Hg12 mi
3:00 AM56 °FOvercast.2 mph77%29.92 "Hg12 mi
2:00 AM58 °FOvercast.3 mph72%29.91 "Hg12 mi
1:00 AM58 °FOvercast.2 mph70%29.92 "Hg12 mi
11:00 PM
Sat, Oct 3
60 °FOvercast.2 mph64%29.92 "Hg12 mi
10:00 PM61 °FOvercast.2 mph61%29.92 "Hg16 mi
9:00 PM61 °FOvercast.2 mph61%29.93 "Hg16 mi
8:00 PM62 °FOvercast.2 mph57%29.95 "Hg16 mi
7:00 PM64 °FPassing clouds.3 mph54%29.94 "Hg16 mi
Weather by CustomWeather, © 2015

See weather overviewHow to use our weather pages